VLG525D LEBL-LEBB

Flight info

Callsign VLG525D
Flight time 0h 46m
Altitude 27000
Route GRAUS M601 POSSY/N0388F290 M601 CEGAM
Aircraft A20N/M-SDE2E3FGHIRWXY/LB1

Departure

Time 2026-05-05 11:24
Airport Josep Tarradellas Barcelona-El Prat Airport (LEBL)

Arrival

Time 2026-05-05 12:10
Airport Bilbao Airport (LEBB)
Time Latitude Longitude Altitude Speed Heading
2026-05-05 11:11 41.29013 2.08001 19 ft 0 kts 336°
2026-05-05 11:17 41.29010 2.08003 19 ft 2 kts 336°
2026-05-05 11:17 41.28995 2.08012 42 ft 2 kts 335°
2026-05-05 11:17 41.28980 2.08021 15 ft 2 kts 335°
2026-05-05 11:17 41.28965 2.08030 19 ft 2 kts 336°
2026-05-05 11:18 41.28953 2.08038 20 ft 2 kts 354°
2026-05-05 11:18 41.28938 2.08033 20 ft 2 kts 56°
2026-05-05 11:18 41.28934 2.08025 20 ft 0 kts 62°
2026-05-05 11:19 41.28935 2.08027 20 ft 2 kts 62°
2026-05-05 11:19 41.28953 2.08074 19 ft 9 kts 66°
2026-05-05 11:20 41.28905 2.08146 19 ft 15 kts 157°
2026-05-05 11:20 41.28786 2.08218 15 ft 23 kts 155°
2026-05-05 11:20 41.28706 2.08269 16 ft 9 kts 103°
2026-05-05 11:20 41.28759 2.08426 16 ft 30 kts 65°
2026-05-05 11:21 41.28851 2.08697 17 ft 34 kts 66°
2026-05-05 11:21 41.28948 2.08987 16 ft 31 kts 66°
2026-05-05 11:21 41.29028 2.09214 16 ft 25 kts 66°
2026-05-05 11:21 41.29104 2.09433 16 ft 27 kts 65°
2026-05-05 11:22 41.29183 2.09668 17 ft 29 kts 65°
2026-05-05 11:22 41.29270 2.09911 16 ft 27 kts 53°
2026-05-05 11:22 41.29350 2.10120 18 ft 27 kts 66°
2026-05-05 11:22 41.29327 2.10285 13 ft 19 kts 156°
2026-05-05 11:23 41.29216 2.10307 15 ft 8 kts 214°
2026-05-05 11:23 41.29209 2.10292 16 ft 0 kts 245°
2026-05-05 11:23 41.29166 2.10169 17 ft 48 kts 245°
2026-05-05 11:23 41.28923 2.09466 19 ft 116 kts 245°
2026-05-05 11:24 41.28504 2.08303 143 ft 150 kts 240°
2026-05-05 11:24 41.27921 2.07216 823 ft 143 kts 222°
2026-05-05 11:24 41.27030 2.06661 1450 ft 145 kts 188°
2026-05-05 11:24 41.26071 2.06569 1996 ft 127 kts 183°
2026-05-05 11:25 41.25283 2.06529 2067 ft 134 kts 186°
2026-05-05 11:25 41.24302 2.06385 2323 ft 156 kts 192°
2026-05-05 11:25 41.23182 2.06007 2867 ft 176 kts 199°
2026-05-05 11:25 41.21981 2.05450 3535 ft 193 kts 202°
2026-05-05 11:26 41.20652 2.04782 4190 ft 212 kts 202°
2026-05-05 11:26 41.19254 2.04084 5267 ft 214 kts 201°
2026-05-05 11:26 41.17881 2.03314 6338 ft 215 kts 215°
2026-05-05 11:26 41.16869 2.01864 7363 ft 216 kts 237°
2026-05-05 11:27 41.16122 2.00134 8450 ft 216 kts 240°
2026-05-05 11:27 41.15378 1.98404 9535 ft 216 kts 238°
2026-05-05 11:27 41.14570 1.96741 10511 ft 218 kts 234°
2026-05-05 11:27 41.13887 1.94874 11180 ft 239 kts 256°
2026-05-05 11:28 41.13969 1.92557 11645 ft 271 kts 282°
2026-05-05 11:28 41.14906 1.90227 12072 ft 304 kts 302°
2026-05-05 11:28 41.16329 1.87971 12456 ft 331 kts 307°
2026-05-05 11:28 41.17897 1.85590 12957 ft 348 kts 306°
2026-05-05 11:29 41.19450 1.83096 13842 ft 352 kts 304°
2026-05-05 11:29 41.20960 1.80525 14743 ft 353 kts 302°
2026-05-05 11:29 41.22434 1.77919 15699 ft 353 kts 301°
2026-05-05 11:29 41.23877 1.75315 16588 ft 355 kts 300°
2026-05-05 11:30 41.25336 1.72659 17485 ft 357 kts 300°
2026-05-05 11:30 41.26806 1.69975 18359 ft 359 kts 299°
2026-05-05 11:30 41.28283 1.67279 19110 ft 362 kts 299°
2026-05-05 11:30 41.29770 1.64565 19835 ft 365 kts 299°
2026-05-05 11:31 41.31281 1.61805 20556 ft 368 kts 298°
2026-05-05 11:31 41.32768 1.59087 21272 ft 371 kts 298°
2026-05-05 11:31 41.34302 1.56281 21970 ft 374 kts 298°
2026-05-05 11:31 41.35838 1.53469 22677 ft 377 kts 298°
2026-05-05 11:32 41.37386 1.50632 23357 ft 380 kts 297°
2026-05-05 11:32 41.38949 1.47766 23960 ft 383 kts 297°
2026-05-05 11:32 41.40524 1.44876 24538 ft 386 kts 297°
2026-05-05 11:32 41.42109 1.41965 25104 ft 389 kts 297°
2026-05-05 11:33 41.43705 1.39031 25666 ft 392 kts 297°
2026-05-05 11:33 41.45313 1.36072 26208 ft 395 kts 297°
2026-05-05 11:33 41.46914 1.33124 26694 ft 399 kts 296°
2026-05-05 11:33 41.48544 1.30116 26897 ft 401 kts 296°
2026-05-05 11:34 41.50179 1.27102 26937 ft 401 kts 296°
2026-05-05 11:34 41.51808 1.24094 26942 ft 400 kts 296°
2026-05-05 11:34 41.53439 1.21077 26939 ft 400 kts 296°
2026-05-05 11:34 41.55063 1.18071 26941 ft 400 kts 296°
2026-05-05 11:35 41.56701 1.15030 26941 ft 408 kts 296°
2026-05-05 11:35 41.58382 1.11888 26941 ft 423 kts 296°
2026-05-05 11:35 41.60107 1.08668 26943 ft 436 kts 296°
2026-05-05 11:35 41.61899 1.05333 26945 ft 446 kts 297°
2026-05-05 11:36 41.63714 1.01969 26937 ft 446 kts 297°
2026-05-05 11:36 41.65537 0.98591 26947 ft 446 kts 297°
2026-05-05 11:36 41.67349 0.95222 26947 ft 446 kts 297°
2026-05-05 11:36 41.69155 0.91855 26955 ft 446 kts 296°
2026-05-05 11:37 41.70966 0.88472 26955 ft 446 kts 296°
2026-05-05 11:37 41.72773 0.85089 26958 ft 446 kts 296°
2026-05-05 11:37 41.74564 0.81733 26961 ft 446 kts 296°
2026-05-05 11:37 41.76363 0.78358 26961 ft 446 kts 296°
2026-05-05 11:38 41.78170 0.74964 26962 ft 447 kts 296°
2026-05-05 11:38 41.79975 0.71569 26964 ft 446 kts 296°
2026-05-05 11:38 41.81778 0.68176 26962 ft 447 kts 296°
2026-05-05 11:38 41.83579 0.64783 26968 ft 447 kts 297°
2026-05-05 11:39 41.85389 0.61369 26969 ft 447 kts 297°
2026-05-05 11:39 41.87167 0.58009 26975 ft 448 kts 297°
2026-05-05 11:39 41.88976 0.54588 26979 ft 448 kts 297°
2026-05-05 11:39 41.90784 0.51166 26964 ft 449 kts 297°
2026-05-05 11:40 41.92592 0.47743 26958 ft 449 kts 297°
2026-05-05 11:40 41.94378 0.44354 26959 ft 450 kts 297°
2026-05-05 11:40 41.96194 0.40907 26957 ft 450 kts 297°
2026-05-05 11:40 41.97908 0.37422 26963 ft 445 kts 293°
2026-05-05 11:41 41.99365 0.33765 26956 ft 441 kts 289°
2026-05-05 11:41 42.00739 0.30066 26955 ft 442 kts 289°
2026-05-05 11:41 42.02112 0.26414 26951 ft 443 kts 289°
2026-05-05 11:41 42.03505 0.22715 26956 ft 443 kts 290°
2026-05-05 11:42 42.04915 0.18964 26951 ft 443 kts 290°
2026-05-05 11:42 42.06287 0.15301 26954 ft 444 kts 290°
2026-05-05 11:42 42.07674 0.11587 26955 ft 444 kts 290°
2026-05-05 11:42 42.09063 0.07863 26958 ft 444 kts 290°
2026-05-05 11:43 42.10451 0.04134 26960 ft 445 kts 290°
2026-05-05 11:43 42.11837 0.00405 26961 ft 445 kts 290°
2026-05-05 11:43 42.13226 -0.03336 26962 ft 446 kts 290°
2026-05-05 11:43 42.14609 -0.07064 26962 ft 446 kts 290°
2026-05-05 11:44 42.15999 -0.10815 26962 ft 446 kts 290°
2026-05-05 11:44 42.17366 -0.14512 26964 ft 446 kts 290°
2026-05-05 11:44 42.18753 -0.18267 26966 ft 447 kts 290°
2026-05-05 11:44 42.20144 -0.22036 26967 ft 448 kts 290°
2026-05-05 11:45 42.21531 -0.25800 26969 ft 448 kts 290°
2026-05-05 11:45 42.22917 -0.29568 26970 ft 450 kts 290°
2026-05-05 11:45 42.24309 -0.33355 26966 ft 449 kts 290°
2026-05-05 11:45 42.25698 -0.37140 26969 ft 449 kts 290°
2026-05-05 11:46 42.27083 -0.40918 26967 ft 449 kts 290°
2026-05-05 11:46 42.28471 -0.44711 26967 ft 451 kts 290°
2026-05-05 11:46 42.29858 -0.48504 26968 ft 451 kts 290°
2026-05-05 11:46 42.31245 -0.52304 26966 ft 451 kts 291°
2026-05-05 11:47 42.32417 -0.55518 26971 ft 452 kts 291°
2026-05-05 11:47 42.33802 -0.59324 26974 ft 452 kts 290°
2026-05-05 11:47 42.35191 -0.63145 26972 ft 451 kts 291°
2026-05-05 11:47 42.36577 -0.66958 26978 ft 453 kts 291°
2026-05-05 11:48 42.39331 -0.74557 26976 ft 453 kts 291°
2026-05-05 11:48 42.40717 -0.78389 26974 ft 453 kts 291°
2026-05-05 11:48 42.42103 -0.82226 26976 ft 453 kts 291°
2026-05-05 11:49 42.43486 -0.86056 26981 ft 454 kts 291°
2026-05-05 11:49 42.44870 -0.89899 26977 ft 453 kts 291°
2026-05-05 11:49 42.46253 -0.93744 26987 ft 453 kts 291°
2026-05-05 11:49 42.47630 -0.97582 26984 ft 454 kts 291°
2026-05-05 11:50 42.48999 -1.01401 26988 ft 455 kts 291°
2026-05-05 11:50 42.50381 -1.05262 26980 ft 455 kts 291°
2026-05-05 11:50 42.51763 -1.09124 26980 ft 455 kts 291°
2026-05-05 11:50 42.53141 -1.12980 26976 ft 452 kts 291°
2026-05-05 11:51 42.54487 -1.16734 26988 ft 431 kts 291°
2026-05-05 11:51 42.55762 -1.20290 26982 ft 410 kts 291°
2026-05-05 11:51 42.56989 -1.23729 26988 ft 404 kts 291°
2026-05-05 11:51 42.58217 -1.27204 26993 ft 411 kts 291°
2026-05-05 11:52 42.59454 -1.30701 26856 ft 410 kts 291°
2026-05-05 11:52 42.60691 -1.34194 26582 ft 409 kts 291°
2026-05-05 11:52 42.61922 -1.37673 26019 ft 410 kts 291°
2026-05-05 11:52 42.63156 -1.41161 25409 ft 408 kts 292°
2026-05-05 11:53 42.64364 -1.44576 24804 ft 404 kts 292°
2026-05-05 11:53 42.65578 -1.48008 24183 ft 402 kts 292°
2026-05-05 11:53 42.66779 -1.51412 23564 ft 398 kts 292°
2026-05-05 11:53 42.67968 -1.54787 22949 ft 393 kts 292°
2026-05-05 11:54 42.69141 -1.58121 22353 ft 388 kts 292°
2026-05-05 11:54 42.70308 -1.61450 21754 ft 400 kts 292°
2026-05-05 11:54 42.71543 -1.64992 21107 ft 423 kts 293°
2026-05-05 11:54 42.72807 -1.68606 20453 ft 421 kts 294°
2026-05-05 11:55 42.74225 -1.72056 19801 ft 416 kts 301°
2026-05-05 11:55 42.75793 -1.75345 19149 ft 409 kts 301°
2026-05-05 11:55 42.77335 -1.78612 18576 ft 427 kts 300°
2026-05-05 11:55 42.78971 -1.82097 18337 ft 431 kts 300°
2026-05-05 11:56 42.80565 -1.85493 17772 ft 429 kts 301°
2026-05-05 11:56 42.82164 -1.88902 17002 ft 425 kts 301°
2026-05-05 11:56 42.83741 -1.92269 16141 ft 420 kts 301°
2026-05-05 11:56 42.85305 -1.95609 15264 ft 415 kts 301°
2026-05-05 11:57 42.86350 -1.97842 14665 ft 412 kts 301°
2026-05-05 11:57 42.88362 -2.02144 13955 ft 395 kts 301°
2026-05-05 11:57 42.89803 -2.05224 13698 ft 373 kts 301°
2026-05-05 11:57 42.90710 -2.07164 13307 ft 364 kts 301°
2026-05-05 11:58 42.92059 -2.10058 12480 ft 358 kts 301°
2026-05-05 11:58 42.93383 -2.12903 11565 ft 352 kts 301°
2026-05-05 11:58 42.94677 -2.15686 11006 ft 338 kts 301°
2026-05-05 11:58 42.95912 -2.18341 10485 ft 325 kts 301°
2026-05-05 11:59 42.97463 -2.21679 10079 ft 301 kts 301°
2026-05-05 11:59 42.98228 -2.23260 10010 ft 286 kts 305°
2026-05-05 11:59 42.99493 -2.25251 9906 ft 276 kts 313°
2026-05-05 11:59 43.00836 -2.27138 9764 ft 283 kts 312°
2026-05-05 12:00 43.02212 -2.29098 9386 ft 285 kts 312°
2026-05-05 12:00 43.02601 -2.29655 9271 ft 285 kts 312°
2026-05-05 12:00 43.03968 -2.31612 8882 ft 282 kts 312°
2026-05-05 12:00 43.05314 -2.33541 8484 ft 279 kts 312°
2026-05-05 12:01 43.06646 -2.35453 8093 ft 275 kts 312°
2026-05-05 12:01 43.07954 -2.37334 7716 ft 272 kts 312°
2026-05-05 12:01 43.09258 -2.39206 7328 ft 270 kts 313°
2026-05-05 12:01 43.10548 -2.41057 6940 ft 268 kts 313°
2026-05-05 12:02 43.11829 -2.42895 6565 ft 266 kts 313°
2026-05-05 12:02 43.12975 -2.44858 6189 ft 263 kts 303°
2026-05-05 12:02 43.13898 -2.46974 6037 ft 251 kts 298°
2026-05-05 12:02 43.14543 -2.48665 6000 ft 239 kts 297°
2026-05-05 12:03 43.15273 -2.50645 5997 ft 228 kts 296°
2026-05-05 12:03 43.15963 -2.52521 6001 ft 212 kts 297°
2026-05-05 12:03 43.16653 -2.54391 6010 ft 227 kts 296°
2026-05-05 12:03 43.17354 -2.56299 6028 ft 226 kts 296°
2026-05-05 12:04 43.18067 -2.58240 5941 ft 226 kts 296°
2026-05-05 12:04 43.18772 -2.60156 5674 ft 229 kts 296°
2026-05-05 12:04 43.19491 -2.62110 5322 ft 228 kts 296°
2026-05-05 12:04 43.20201 -2.64044 4979 ft 227 kts 296°
2026-05-05 12:05 43.20909 -2.65975 4594 ft 225 kts 297°
2026-05-05 12:05 43.21598 -2.67851 4244 ft 216 kts 296°
2026-05-05 12:05 43.22264 -2.69663 3920 ft 208 kts 296°
2026-05-05 12:05 43.22898 -2.71393 3607 ft 202 kts 296°
2026-05-05 12:06 43.23523 -2.73095 3295 ft 197 kts 296°
2026-05-05 12:06 43.24119 -2.74720 3031 ft 184 kts 296°
2026-05-05 12:06 43.24677 -2.76238 2749 ft 172 kts 296°
2026-05-05 12:06 43.25186 -2.77631 2503 ft 154 kts 296°
2026-05-05 12:07 43.25641 -2.78871 2267 ft 138 kts 296°
2026-05-05 12:07 43.26059 -2.80009 2054 ft 129 kts 296°
2026-05-05 12:07 43.26444 -2.81059 1852 ft 118 kts 296°
2026-05-05 12:07 43.26795 -2.82020 1669 ft 108 kts 296°
2026-05-05 12:08 43.27137 -2.82951 1499 ft 114 kts 296°
2026-05-05 12:08 43.27504 -2.83954 1369 ft 123 kts 296°
2026-05-05 12:08 43.27889 -2.85025 1212 ft 124 kts 297°
2026-05-05 12:08 43.28278 -2.86084 975 ft 124 kts 298°
2026-05-05 12:09 43.28665 -2.87125 721 ft 121 kts 298°
2026-05-05 12:09 43.29034 -2.88129 506 ft 114 kts 298°
2026-05-05 12:09 43.29394 -2.89112 340 ft 119 kts 298°
2026-05-05 12:09 43.29768 -2.90141 201 ft 120 kts 297°
2026-05-05 12:10 43.30137 -2.91118 129 ft 104 kts 296°
2026-05-05 12:10 43.30372 -2.91759 132 ft 43 kts 297°
2026-05-05 12:10 43.30484 -2.91952 130 ft 28 kts 319°